EN

Hourly Weather Alpthal

Today, 28 January, Thursday

Time Temperature Precipitation Wind Pressure Humidity
00:00 0°C° 1.8 mm 1 mps 645 mmHg 99%
01:00 0°C° 0 mm 1 mps 645 mmHg 98%
02:00 0°C° 1.2 mm 1 mps 645 mmHg 98%
03:00 0°C° 1.2 mm 1 mps 645 mmHg 98%
04:00 0°C° 1.2 mm 1 mps 644 mmHg 98%
05:00 +1°C° 1.7 mm 1 mps 644 mmHg 98%
06:00 +1°C° 1.7 mm 1 mps 643 mmHg 98%
07:00 -1°C° 0 mm 2 mps 643 mmHg 98%
08:00 -1°C° 2.5 mm 2 mps 643 mmHg 98%
09:00 -1°C° 2.5 mm 2 mps 642 mmHg 98%
10:00 -1°C° 2.5 mm 2 mps 642 mmHg 98%
11:00 +1°C° 2 mm 2 mps 642 mmHg 99%
12:00 0°C° 2 mm 3 mps 642 mmHg 99%
13:00 +1°C° 2 mm 3 mps 642 mmHg 99%
14:00 0°C° 2.5 mm 3 mps 641 mmHg 99%
15:00 0°C° 2.5 mm 3 mps 641 mmHg 98%
16:00 0°C° 2.5 mm 3 mps 641 mmHg 98%
17:00 0°C° 2.1 mm 3 mps 642 mmHg 98%
18:00 0°C° 2.1 mm 3 mps 642 mmHg 98%
19:00 0°C° 2.1 mm 3 mps 642 mmHg 98%
20:00 +1°C° 1.3 mm 2 mps 642 mmHg 98%
21:00 +1°C° 1.3 mm 2 mps 642 mmHg 97%
22:00 +1°C° 1.3 mm 2 mps 643 mmHg 97%
23:00 +1°C° 0.3 mm 2 mps 642 mmHg 96%

Tomorrow, 29 January, Friday

Time Temperature Precipitation Wind Pressure Humidity
00:00 +1°C° 0.3 mm 2 mps 642 mmHg 96%
01:00 +1°C° 0.3 mm 2 mps 642 mmHg 95%
02:00 +1°C° 0.6 mm 2 mps 641 mmHg 95%
03:00 +1°C° 0.6 mm 2 mps 640 mmHg 96%
04:00 +1°C° 0.6 mm 2 mps 640 mmHg 96%
05:00 +1°C° 1.4 mm 2 mps 639 mmHg 96%
06:00 +1°C° 1.4 mm 2 mps 639 mmHg 97%
07:00 +1°C° 1.4 mm 2 mps 638 mmHg 97%
08:00 0°C° 2.8 mm 3 mps 638 mmHg 97%
09:00 0°C° 2.8 mm 3 mps 639 mmHg 97%
10:00 0°C° 2.8 mm 3 mps 639 mmHg 97%
11:00 +1°C° 0.7 mm 3 mps 640 mmHg 95%
12:00 +1°C° 0.7 mm 3 mps 640 mmHg 94%
13:00 +1°C° 0.7 mm 3 mps 640 mmHg 92%
14:00 +1°C° 0.4 mm 3 mps 639 mmHg 93%
15:00 0°C° 0.4 mm 3 mps 639 mmHg 94%
16:00 +1°C° 0.4 mm 2 mps 638 mmHg 94%
17:00 -1°C° 2.2 mm 3 mps 639 mmHg 95%
18:00 -1°C° 2.2 mm 3 mps 639 mmHg 96%
19:00 -2°C° 2.2 mm 3 mps 639 mmHg 97%
20:00 -2°C° 1.7 mm 3 mps 639 mmHg 97%
21:00 -3°C° 1.7 mm 4 mps 640 mmHg 97%
22:00 -3°C° 1.7 mm 4 mps 640 mmHg 96%
23:00 -2°C° 0.5 mm 3 mps 640 mmHg 95%

Day after tomorrow, 30 January, Saturday

Time Temperature Precipitation Wind Pressure Humidity
00:00 -2°C° 0.5 mm 3 mps 641 mmHg 95%
01:00 -3°C° 0.5 mm 2 mps 641 mmHg 94%
02:00 -3°C° 0 mm 2 mps 640 mmHg 89%
03:00 -4°C° 0 mm 2 mps 639 mmHg 85%
04:00 -5°C° 0 mm 2 mps 638 mmHg 81%
05:00 -4°C° 0 mm 2 mps 638 mmHg 77%
06:00 -4°C° 0 mm 2 mps 637 mmHg 74%
07:00 -1°C° 0 mm 1 mps 637 mmHg 70%
08:00 -2°C° 0.1 mm 2 mps 636 mmHg 75%
09:00 -2°C° 0.1 mm 2 mps 636 mmHg 79%
10:00 -1°C° 0.1 mm 2 mps 636 mmHg 84%
11:00 +1°C° 0.9 mm 2 mps 635 mmHg 88%
12:00 +2°C° 0.9 mm 1 mps 634 mmHg 93%
13:00 +2°C° 0.9 mm 1 mps 633 mmHg 97%
14:00 +2°C° 1.4 mm 1 mps 633 mmHg 97%
15:00 +1°C° 1.4 mm 1 mps 633 mmHg 97%
16:00 +1°C° 1.4 mm 1 mps 632 mmHg 97%
17:00 +1°C° 1.9 mm 1 mps 632 mmHg 97%
18:00 -1°C° 1.9 mm 2 mps 632 mmHg 97%
19:00 -1°C° 1.9 mm 2 mps 632 mmHg 97%
20:00 -2°C° 2.4 mm 2 mps 632 mmHg 97%
21:00 -2°C° 2.4 mm 2 mps 633 mmHg 98%
22:00 -2°C° 2.4 mm 2 mps 633 mmHg 98%
23:00 -2°C° 1.7 mm 2 mps 633 mmHg 98%

31 January, Sunday

Time Temperature Precipitation Wind Pressure Humidity
00:00 -2°C° 1.7 mm 2 mps 633 mmHg 98%
01:00 -2°C° 1.7 mm 2 mps 633 mmHg 98%
02:00 0°C° 0.8 mm 1 mps 633 mmHg 98%
03:00 0°C° 0.8 mm 1 mps 632 mmHg 98%
04:00 0°C° 0.8 mm 1 mps 632 mmHg 98%
05:00 0°C° 0.3 mm 1 mps 632 mmHg 98%
06:00 0°C° 0.3 mm 1 mps 633 mmHg 98%
07:00 0°C° 0.3 mm 1 mps 633 mmHg 98%
08:00 0°C° 0.2 mm 1 mps 633 mmHg 98%
09:00 0°C° 0.2 mm 1 mps 633 mmHg 98%
10:00 0°C° 0.2 mm 1 mps 634 mmHg 97%
11:00 +1°C° 0.1 mm 1 mps 634 mmHg 97%
12:00 +1°C° 0.1 mm 1 mps 634 mmHg 96%
13:00 +1°C° 0.1 mm 1 mps 634 mmHg 96%
14:00 +1°C° 0 mm 1 mps 634 mmHg 95%
15:00 +1°C° 0 mm 1 mps 634 mmHg 94%
16:00 +1°C° 0 mm 1 mps 634 mmHg 94%
17:00 0°C° 0 mm 1 mps 634 mmHg 92%
18:00 -1°C° 0 mm 1 mps 634 mmHg 90%
19:00 -3°C° 0 mm 1 mps 634 mmHg 89%
20:00 -3°C° 0 mm 1 mps 633 mmHg 87%
21:00 -4°C° 0 mm 2 mps 633 mmHg 84%
22:00 -4°C° 0 mm 2 mps 633 mmHg 82%
23:00 -4°C° 0 mm 2 mps 633 mmHg 82%

1 February, Monday

Time Temperature Precipitation Wind Pressure Humidity
00:00 -2°C° 0 mm 1 mps 633 mmHg 82%
01:00 -2°C° 0 mm 1 mps 632 mmHg 81%
02:00 -2°C° 0.1 mm 1 mps 632 mmHg 83%
03:00 -2°C° 0.1 mm 1 mps 632 mmHg 84%
04:00 -2°C° 0.1 mm 1 mps 632 mmHg 86%
05:00 -1°C° 0.1 mm 1 mps 632 mmHg 88%
06:00 -3°C° 0.1 mm 2 mps 632 mmHg 89%
07:00 -3°C° 0.1 mm 2 mps 633 mmHg 91%
08:00 -3°C° 1 mm 2 mps 633 mmHg 93%
09:00 -2°C° 1 mm 2 mps 633 mmHg 95%
10:00 -2°C° 1 mm 2 mps 634 mmHg 97%
11:00 -1°C° 1.3 mm 2 mps 634 mmHg 97%
12:00 -1°C° 1.3 mm 2 mps 635 mmHg 98%
13:00 +1°C° 1.3 mm 1 mps 635 mmHg 98%
14:00 +1°C° 1.1 mm 1 mps 635 mmHg 98%
15:00 +2°C° 1.1 mm 1 mps 636 mmHg 98%
16:00 +2°C° 1.1 mm 1 mps 636 mmHg 98%
17:00 +1°C° 1.2 mm 1 mps 636 mmHg 98%
18:00 +1°C° 1.2 mm 1 mps 637 mmHg 98%
19:00 +1°C° 1.2 mm 1 mps 638 mmHg 98%
20:00 +1°C° 1.4 mm 1 mps 638 mmHg 98%
21:00 +1°C° 1.4 mm 1 mps 639 mmHg 98%
22:00 +1°C° 1.4 mm 1 mps 639 mmHg 98%
23:00 +1°C° 2.1 mm 1 mps 640 mmHg 98%

2 February, Tuesday

Time Temperature Precipitation Wind Pressure Humidity
00:00 +1°C° 2.1 mm 1 mps 641 mmHg 98%
01:00 +1°C° 2.1 mm 1 mps 641 mmHg 98%
02:00 +1°C° 1.1 mm 1 mps 642 mmHg 98%
03:00 +1°C° 1.1 mm 1 mps 642 mmHg 98%
04:00 +1°C° 1.1 mm 1 mps 643 mmHg 97%
05:00 +1°C° 0.4 mm 1 mps 643 mmHg 97%
06:00 +1°C° 0.4 mm 1 mps 643 mmHg 97%
07:00 0°C° 0.4 mm 1 mps 644 mmHg 97%
08:00 +1°C° 0 mm 1 mps 644 mmHg 95%
09:00 +1°C° 0 mm 1 mps 644 mmHg 93%
10:00 +2°C° 0 mm 1 mps 644 mmHg 91%
11:00 +3°C° 0 mm 1 mps 644 mmHg 92%
12:00 +3°C° 0 mm 1 mps 644 mmHg 92%
13:00 +4°C° 0 mm 1 mps 644 mmHg 93%
14:00 +4°C° 0.2 mm 1 mps 644 mmHg 94%
15:00 +3°C° 0.2 mm 1 mps 644 mmHg 94%
16:00 +2°C° 0.2 mm 2 mps 643 mmHg 95%
17:00 +2°C° 0.2 mm 2 mps 644 mmHg 95%
18:00 +2°C° 0.2 mm 2 mps 644 mmHg 95%
19:00 +2°C° 0.2 mm 2 mps 644 mmHg 94%
20:00 +2°C° 0 mm 2 mps 644 mmHg 92%
21:00 +2°C° 0 mm 2 mps 644 mmHg 90%
22:00 +2°C° 0 mm 2 mps 644 mmHg 88%
23:00 +2°C° 0 mm 2 mps 644 mmHg 87%
Show more